�������l�o���
Date,Time,MP-1(��Sv/h),MP-2(��Sv/h),MP-3(��Sv/h),MP-4(��Sv/h),MP-5(��Sv/h),MP-6(��Sv/h),MP-7(��Sv/h),MP-8(��Sv/h),����,����(m/s),���J
2022/04/06,00:00,0.564,0.832,0.538,1.017,0.717,0.342,0.593,0.561,��쐼,5.5,��
2022/04/06,00:10,0.564,0.831,0.538,1.020,0.717,0.341,0.591,0.562,��쐼,5.4,��
2022/04/06,00:20,0.565,0.834,0.540,1.018,0.718,0.342,0.593,0.560,��쐼,4.9,��
2022/04/06,00:30,0.563,0.830,0.539,1.016,0.718,0.342,0.592,0.561,��,4.9,��
2022/04/06,00:40,0.566,0.835,0.538,1.017,0.718,0.344,0.592,0.560,��쐼,3.6,��
2022/04/06,00:50,0.564,0.834,0.539,1.017,0.716,0.341,0.592,0.560,��쐼,2.8,��
2022/04/06,01:00,0.565,0.833,0.539,1.018,0.714,0.342,0.593,0.562,��쐼,2.6,��
2022/04/06,01:10,0.563,0.833,0.536,1.017,0.716,0.342,0.590,0.561,��,3.6,��
2022/04/06,01:20,0.565,0.831,0.538,1.018,0.717,0.341,0.591,0.564,��,4.8,��
2022/04/06,01:30,0.565,0.833,0.538,1.018,0.716,0.342,0.592,0.562,��,4.3,��
2022/04/06,01:40,0.565,0.833,0.537,1.019,0.716,0.343,0.590,0.562,��,5.1,��
2022/04/06,01:50,0.565,0.833,0.537,1.018,0.717,0.343,0.593,0.563,��,4.2,��
2022/04/06,02:00,0.564,0.833,0.539,1.018,0.717,0.343,0.592,0.561,��쐼,2.5,��
2022/04/06,02:10,0.566,0.836,0.539,1.018,0.717,0.343,0.592,0.562,��,3.1,��
2022/04/06,02:20,0.564,0.832,0.539,1.020,0.716,0.343,0.592,0.562,��,4.2,��
2022/04/06,02:30,0.565,0.834,0.537,1.018,0.717,0.343,0.591,0.562,��,5.4,��
2022/04/06,02:40,0.565,0.832,0.538,1.018,0.716,0.343,0.591,0.562,��,5.6,��
2022/04/06,02:50,0.564,0.834,0.538,1.018,0.718,0.342,0.591,0.561,��,5.3,��
2022/04/06,03:00,0.565,0.834,0.538,1.020,0.716,0.342,0.591,0.563,��,4.1,��
2022/04/06,03:10,0.566,0.833,0.539,1.017,0.717,0.342,0.594,0.561,��쓌,3.8,��
2022/04/06,03:20,0.567,0.832,0.537,1.020,0.717,0.342,0.591,0.562,��,3.6,��
2022/04/06,03:30,0.565,0.833,0.540,1.018,0.718,0.344,0.593,0.561,��쐼,5.6,��
2022/04/06,03:40,0.565,0.835,0.538,1.021,0.717,0.343,0.591,0.561,��쐼,8.3,��
2022/04/06,03:50,0.567,0.834,0.538,1.016,0.717,0.344,0.593,0.562,��,7.2,��
2022/04/06,04:00,0.566,0.833,0.538,1.019,0.717,0.342,0.593,0.560,��쐼,8.2,��
2022/04/06,04:10,0.565,0.833,0.539,1.016,0.716,0.343,0.594,0.562,��쐼,7.6,��
2022/04/06,04:20,0.566,0.833,0.538,1.018,0.716,0.342,0.593,0.562,��쐼,6.4,��
2022/04/06,04:30,0.566,0.833,0.540,1.017,0.717,0.343,0.593,0.562,��쐼,7.1,��
2022/04/06,04:40,0.565,0.835,0.540,1.018,0.716,0.342,0.592,0.562,��쐼,7.0,��
2022/04/06,04:50,0.564,0.833,0.539,1.018,0.717,0.342,0.592,0.562,��쐼,5.9,��
2022/04/06,05:00,0.565,0.831,0.539,1.018,0.717,0.343,0.592,0.562,��쐼,6.4,��
2022/04/06,05:10,0.564,0.833,0.539,1.016,0.717,0.343,0.595,0.560,��쐼,7.1,�L
2022/04/06,05:20,0.567,0.831,0.539,1.018,0.718,0.343,0.592,0.562,��쐼,7.3,��
2022/04/06,05:30,0.565,0.832,0.537,1.017,0.717,0.344,0.593,0.562,��쐼,6.6,��
2022/04/06,05:40,0.566,0.833,0.539,1.017,0.718,0.342,0.594,0.564,��쐼,6.1,��
2022/04/06,05:50,0.566,0.832,0.539,1.021,0.718,0.343,0.594,0.562,�쐼,5.7,��
2022/04/06,06:00,0.566,0.835,0.539,1.019,0.717,0.343,0.592,0.561,�쐼,5.7,��
2022/04/06,06:10,0.567,0.833,0.539,1.018,0.716,0.342,0.593,0.562,�쐼,5.8,��
2022/04/06,06:20,0.565,0.834,0.539,1.020,0.718,0.343,0.595,0.563,�쐼,6.2,��
2022/04/06,06:30,0.566,0.836,0.539,1.019,0.717,0.344,0.594,0.563,�쐼,6.0,��
2022/04/06,06:40,0.566,0.834,0.540,1.020,0.718,0.344,0.595,0.562,�쐼,6.1,��
2022/04/06,06:50,0.568,0.834,0.539,1.018,0.718,0.343,0.594,0.563,�쐼,5.3,��
2022/04/06,07:00,0.567,0.835,0.539,1.018,0.719,0.343,0.594,0.561,�쐼,4.5,��
2022/04/06,07:10,0.567,0.834,0.541,1.018,0.719,0.344,0.593,0.564,�쐼,3.2,��
2022/04/06,07:20,0.566,0.835,0.541,1.016,0.719,0.344,0.595,0.562,��쐼,3.6,��
2022/04/06,07:30,0.569,0.837,0.540,1.019,0.718,0.344,0.594,0.562,�쐼,3.9,��
2022/04/06,07:40,0.566,0.837,0.543,1.020,0.719,0.344,0.594,0.562,�쐼,5.2,��
2022/04/06,07:50,0.567,0.836,0.541,1.019,0.720,0.344,0.593,0.561,�쐼,3.3,��
2022/04/06,08:00,0.567,0.833,0.542,1.020,0.721,0.343,0.593,0.563,�쐼,3.0,��
2022/04/06,08:10,0.567,0.834,0.540,1.022,0.720,0.343,0.593,0.564,�쐼,3.0,��
2022/04/06,08:20,0.568,0.836,0.542,1.019,0.720,0.343,0.593,0.564,�쐼,2.9,��
2022/04/06,08:30,0.568,0.836,0.539,1.019,0.719,0.343,0.593,0.564,�쐼,3.1,��
2022/04/06,08:40,0.569,0.836,0.543,1.020,0.720,0.343,0.595,0.563,�쐼,3.4,��
2022/04/06,08:50,0.570,0.835,0.541,1.021,0.720,0.343,0.594,0.564,��쐼,3.2,��
2022/04/06,09:00,0.571,0.835,0.541,1.023,0.720,0.342,0.594,0.562,���쐼,3.1,��
2022/04/06,09:10,0.570,0.835,0.542,1.025,0.721,0.343,0.594,0.564,���쐼,3.0,��
2022/04/06,09:20,0.569,0.833,0.543,1.023,0.721,0.342,0.593,0.560,�쐼,2.5,��
2022/04/06,09:30,0.569,0.833,0.544,1.021,0.720,0.343,0.595,0.562,��쐼,3.3,��
2022/04/06,09:40,0.570,0.832,0.542,1.024,0.719,0.342,0.595,0.564,��쐼,3.0,��
2022/04/06,09:50,0.567,0.834,0.541,1.023,0.720,0.345,0.594,0.561,�쐼,3.3,��
2022/04/06,10:00,0.567,0.833,0.542,1.023,0.720,0.343,0.592,0.562,��쐼,2.6,��
2022/04/06,10:10,0.568,0.832,0.540,1.023,0.720,0.344,0.595,0.561,��,2.9,��
2022/04/06,10:20,0.567,0.833,0.541,1.022,0.721,0.344,0.593,0.563,��쓌,3.2,��
2022/04/06,10:30,0.570,0.833,0.541,1.023,0.719,0.346,0.594,0.560,��쓌,3.5,��
2022/04/06,10:40,0.569,0.835,0.541,1.021,0.723,0.344,0.595,0.563,��쓌,3.0,��
2022/04/06,10:50,0.569,0.837,0.540,1.024,0.722,0.343,0.595,0.562,��쓌,4.8,��
2022/04/06,11:00,0.568,0.835,0.540,1.021,0.721,0.343,0.595,0.562,��쓌,5.6,��
2022/04/06,11:10,0.568,0.836,0.539,1.022,0.720,0.343,0.595,0.564,��쓌,4.8,��
2022/04/06,11:20,0.569,0.837,0.539,1.024,0.724,0.344,0.596,0.561,��쓌,5.0,��
2022/04/06,11:30,0.570,0.838,0.543,1.023,0.719,0.342,0.596,0.561,��쓌,5.4,��
2022/04/06,11:40,0.569,0.838,0.541,1.024,0.722,0.344,0.596,0.562,��쓌,6.6,��
2022/04/06,11:50,0.570,0.838,0.541,1.023,0.723,0.344,0.596,0.562,��쓌,6.3,��
2022/04/06,12:00,0.569,0.839,0.539,1.024,0.722,0.344,0.596,0.561,��쓌,5.5,��
2022/04/06,12:10,0.570,0.839,0.543,1.024,0.724,0.344,0.595,0.563,��쓌,6.0,��
2022/04/06,12:20,0.570,0.838,0.540,1.022,0.722,0.344,0.596,0.563,��쓌,6.3,��
2022/04/06,12:30,0.570,0.841,0.542,1.025,0.724,0.344,0.597,0.562,��쓌,6.5,��
2022/04/06,12:40,0.572,0.839,0.542,1.025,0.722,0.344,0.594,0.562,��쓌,7.8,��
2022/04/06,12:50,0.569,0.839,0.542,1.025,0.724,0.346,0.595,0.563,��쓌,9.4,��
2022/04/06,13:00,0.571,0.840,0.543,1.026,0.725,0.344,0.596,0.563,��,8.4,��
2022/04/06,13:10,0.569,0.840,0.542,1.026,0.723,0.344,0.596,0.562,��쓌,9.1,��
2022/04/06,13:20,0.569,0.839,0.543,1.026,0.725,0.345,0.597,0.563,��,8.5,��
2022/04/06,13:30,0.570,0.840,0.543,1.026,0.725,0.345,0.596,0.562,��쓌,8.3,��
2022/04/06,13:40,0.569,0.840,0.544,1.025,0.725,0.345,0.596,0.563,��,6.4,��
2022/04/06,13:50,0.570,0.839,0.543,1.026,0.726,0.344,0.596,0.561,��쓌,6.1,��
2022/04/06,14:00,0.571,0.839,0.542,1.025,0.725,0.345,0.599,0.562,��,8.0,��
2022/04/06,14:10,0.571,0.839,0.544,1.025,0.726,0.344,0.596,0.561,��쓌,8.0,��
2022/04/06,14:20,0.573,0.841,0.543,1.027,0.725,0.345,0.597,0.563,��,8.7,��
2022/04/06,14:30,0.573,0.839,0.543,1.024,0.725,0.347,0.597,0.562,��,8.1,��
2022/04/06,14:40,0.573,0.840,0.543,1.027,0.726,0.345,0.596,0.564,��,7.3,��
2022/04/06,14:50,0.572,0.839,0.543,1.027,0.726,0.344,0.597,0.564,��,7.4,��
2022/04/06,15:00,0.572,0.843,0.544,1.029,0.726,0.345,0.598,0.564,��,6.8,��
2022/04/06,15:10,0.573,0.841,0.543,1.029,0.727,0.345,0.598,0.563,��쓌,7.9,��
2022/04/06,15:20,0.572,0.840,0.545,1.028,0.728,0.344,0.597,0.566,��,7.0,��
2022/04/06,15:30,0.571,0.840,0.544,1.028,0.727,0.345,0.596,0.563,��,5.8,��
2022/04/06,15:40,0.573,0.841,0.543,1.024,0.727,0.345,0.597,0.564,��,5.8,��
2022/04/06,15:50,0.572,0.841,0.544,1.025,0.725,0.344,0.597,0.563,��,6.8,��
2022/04/06,16:00,0.571,0.843,0.544,1.025,0.726,0.345,0.599,0.564,��,6.3,��
2022/04/06,16:10,0.572,0.844,0.543,1.025,0.726,0.346,0.597,0.563,��,5.1,��
2022/04/06,16:20,0.572,0.842,0.542,1.025,0.728,0.346,0.597,0.564,��,4.0,��
2022/04/06,16:30,0.570,0.843,0.543,1.023,0.727,0.345,0.599,0.563,��,3.5,��
2022/04/06,16:40,0.572,0.842,0.544,1.024,0.726,0.346,0.596,0.564,��,3.8,��
2022/04/06,16:50,0.572,0.844,0.543,1.024,0.726,0.346,0.597,0.562,��,3.8,��
2022/04/06,17:00,0.571,0.845,0.544,1.027,0.728,0.347,0.597,0.562,��,3.5,��
2022/04/06,17:10,0.571,0.844,0.544,1.026,0.728,0.346,0.597,0.562,��,3.0,��
2022/04/06,17:20,0.571,0.846,0.541,1.026,0.727,0.347,0.597,0.565,��쐼,2.3,��
2022/04/06,17:30,0.573,0.849,0.542,1.026,0.726,0.348,0.596,0.564,�쐼,1.7,��
2022/04/06,17:40,0.572,0.846,0.545,1.027,0.727,0.347,0.597,0.565,��,0.8,��
2022/04/06,17:50,0.572,0.845,0.543,1.025,0.725,0.347,0.596,0.564,�k�k��,2.0,��
2022/04/06,18:00,0.573,0.844,0.542,1.028,0.728,0.347,0.597,0.566,�k,2.3,��
2022/04/06,18:10,0.572,0.846,0.545,1.026,0.730,0.347,0.595,0.566,�k��,3.7,��
2022/04/06,18:20,0.573,0.844,0.545,1.027,0.728,0.349,0.597,0.566,�k��,5.5,��
2022/04/06,18:30,0.574,0.845,0.544,1.027,0.730,0.347,0.597,0.565,�k��,5.7,��
2022/04/06,18:40,0.574,0.844,0.545,1.029,0.729,0.348,0.597,0.565,�k��,6.2,��
2022/04/06,18:50,0.574,0.848,0.545,1.028,0.728,0.347,0.598,0.565,�k�k��,6.7,��
2022/04/06,19:00,0.573,0.846,0.545,1.029,0.730,0.347,0.598,0.565,�k�k��,5.5,��
2022/04/06,19:10,0.572,0.844,0.544,1.028,0.727,0.346,0.597,0.567,�k��,5.0,��
2022/04/06,19:20,0.573,0.846,0.545,1.028,0.730,0.346,0.600,0.566,�k��,4.9,��
2022/04/06,19:30,0.573,0.846,0.544,1.029,0.730,0.347,0.600,0.565,�k�k��,3.8,��
2022/04/06,19:40,0.573,0.845,0.544,1.029,0.728,0.346,0.599,0.566,�k�k��,3.8,��
2022/04/06,19:50,0.573,0.845,0.544,1.029,0.729,0.348,0.599,0.565,�k�k��,4.0,��
2022/04/06,20:00,0.572,0.847,0.546,1.028,0.731,0.345,0.599,0.567,�k��,4.1,��
2022/04/06,20:10,0.571,0.846,0.546,1.028,0.728,0.347,0.599,0.566,�k��,4.2,��
2022/04/06,20:20,0.573,0.845,0.544,1.029,0.730,0.347,0.597,0.565,���k��,2.8,��
2022/04/06,20:30,0.574,0.845,0.545,1.029,0.728,0.347,0.600,0.566,�k��,2.6,��
2022/04/06,20:40,0.573,0.846,0.546,1.028,0.727,0.346,0.598,0.565,�k��,2.3,��
2022/04/06,20:50,0.573,0.846,0.545,1.029,0.729,0.347,0.598,0.565,�k�k��,3.3,��
2022/04/06,21:00,0.572,0.846,0.544,1.030,0.728,0.346,0.600,0.566,�k�k��,3.1,��
2022/04/06,21:10,0.573,0.845,0.545,1.030,0.730,0.346,0.598,0.564,�k�k��,5.1,��
2022/04/06,21:20,0.573,0.846,0.545,1.029,0.730,0.346,0.598,0.566,�k�k��,4.8,��
2022/04/06,21:30,0.573,0.846,0.544,1.030,0.728,0.345,0.599,0.566,�k�k��,4.0,��
2022/04/06,21:40,0.573,0.846,0.543,1.029,0.728,0.345,0.598,0.563,�k�k��,3.9,��
2022/04/06,21:50,0.574,0.845,0.544,1.029,0.729,0.346,0.600,0.564,�k�k��,5.0,��
2022/04/06,22:00,0.573,0.847,0.545,1.029,0.729,0.346,0.598,0.566,�k�k��,4.7,��
2022/04/06,22:10,0.573,0.845,0.545,1.031,0.729,0.346,0.598,0.566,�k�k��,5.2,��
2022/04/06,22:20,0.573,0.847,0.543,1.028,0.730,0.346,0.600,0.565,�k�k��,6.0,��
2022/04/06,22:30,0.571,0.846,0.545,1.030,0.730,0.346,0.596,0.564,�k�k��,5.3,��
2022/04/06,22:40,0.572,0.846,0.545,1.029,0.728,0.346,0.597,0.564,�k�k��,6.1,��
2022/04/06,22:50,0.573,0.846,0.545,1.029,0.727,0.346,0.598,0.567,�k�k��,6.1,��
2022/04/06,23:00,0.572,0.845,0.545,1.030,0.728,0.346,0.598,0.563,�k,5.2,��
2022/04/06,23:10,0.572,0.846,0.543,1.030,0.729,0.347,0.598,0.566,�k,6.3,��
2022/04/06,23:20,0.572,0.846,0.545,1.028,0.729,0.346,0.597,0.566,�k��,6.6,��
2022/04/06,23:30,0.572,0.845,0.544,1.030,0.728,0.347,0.599,0.565,�k�k��,6.8,��
2022/04/06,23:40,0.571,0.847,0.544,1.027,0.730,0.344,0.598,0.566,�k�k��,7.5,��
2022/04/06,23:50,0.572,0.846,0.543,1.029,0.732,0.345,0.598,0.565,�k�k��,8.1,��
